Location: College Park
(38.9810°N, 76.9370°W)
Time: 23:59:35
(UTC-05:00)

OTV 5 (USA 277) - Pass Details

Date: 07 January 2018
Orbit: 404 x 417 km, 43.0° (Epoch: 07 September)

Event Time Altitude Azimuth Distance (km) Brightness Sun altitude
Exits shadow 05:09:01 20° 62° (ENE) 988 ? -26.1°
Drops below altitude 10° 05:10:19 10° 74° (ENE) 1,455 ? -25.9°
Sets 05:12:30 0° 82° (E) 2,315 ? -25.5°
